HULIANWANG DIGUI-86

Last updated on Tue Oct 28 2025 00:02:06 GMT+0000 (Coordinated Universal Time)

1 65821U 25220E 25299.84266988 -.00000118 00000+0 -20683-3 0 9994 2 65821 86.4930 122.8297 0001166 57.2016 302.9245 13.50915544 4006

Satellite not in orbit

HULIANWANG DIGUI-86